,,Stat6,,Stat2,,Stat8,,Stat9,,Stat10,,Wind1,,Wind1,
time,status,PA1M_AVG,status,PR1M_SUM,status,RH1M_AVG,status,SR1M_AVG,status,TA1M_AVG,status,W1dAve1m,status,W1sAve1m,
2004-07-28, 00:00:01,VALID,918.209,VALID,0,VALID,96.9001,VALID,-0.0849042,VALID,19.4451,VALID,10,VALID,0,
2004-07-28, 00:01:00,VALID,918.201,VALID,0,VALID,96.9128,VALID,-0.101885,VALID,19.4451,VALID,10,VALID,0,
2004-07-28, 00:02:01,VALID,918.194,VALID,0,VALID,97.0171,VALID,-0.101885,VALID,19.4622,VALID,10,VALID,0,
2004-07-28, 00:03:01,VALID,918.186,VALID,0,VALID,97.1684,VALID,-0.101885,VALID,19.4523,VALID,10,VALID,0,
2004-07-28, 00:04:01,VALID,918.178,VALID,0,VALID,97.2599,VALID,-0.118866,VALID,19.4717,VALID,10,VALID,0.0270579,
2004-07-28, 00:05:01,VALID,918.162,VALID,0,VALID,97.0578,VALID,-0.101885,VALID,19.4551,VALID,10,VALID,0.334794,
2004-07-28, 00:06:01,VALID,918.14,VALID,0,VALID,96.9268,VALID,-0.101885,VALID,19.4198,VALID,11,VALID,0.410156,
2004-07-28, 00:07:01,VALID,918.115,VALID,0,VALID,96.9573,VALID,-0.101885,VALID,19.391,VALID,78,VALID,0.510603,
2004-07-28, 00:08:01,VALID,918.076,VALID,0,VALID,97.1544,VALID,0,VALID,19.3642,VALID,113,VALID,0.829459,
2004-07-28, 00:09:01,VALID,918.042,VALID,0,VALID,97.4545,VALID,-0.0169808,VALID,19.3607,VALID,113,VALID,0.921074,
2004-07-28, 00:10:01,VALID,918.006,VALID,0,VALID,97.6707,VALID,-0.0169808,VALID,19.3505,VALID,113,VALID,0.943924,
2004-07-28, 00:11:01,VALID,917.976,VALID,0,VALID,97.8551,VALID,-0.0339617,VALID,19.3505,VALID,122,VALID,0.93378,
2004-07-28, 00:12:01,VALID,917.97,VALID,0,VALID,97.9987,VALID,0,VALID,19.3731,VALID,127,VALID,0.710756,
2004-07-28, 00:13:01,VALID,917.947,VALID,0,VALID,97.986,VALID,0,VALID,19.3955,VALID,128,VALID,0.987614,
2004-07-28, 00:14:01,VALID,917.965,VALID,0,VALID,97.972,VALID,0.0169808,VALID,19.4116,VALID,132,VALID,0.897104,
2004-07-28, 00:15:01,VALID,917.974,VALID,0,VALID,98.0267,VALID,0,VALID,19.4349,VALID,136,VALID,0.951215,
2004-07-28, 00:16:01,VALID,917.958,VALID,0,VALID,98.0102,VALID,-0.0169808,VALID,19.4476,VALID,135,VALID,0.874455,
2004-07-28, 00:17:01,VALID,917.968,VALID,0,VALID,97.8398,VALID,0,VALID,19.4533,VALID,133,VALID,0.624092,
2004-07-28, 00:18:01,VALID,917.95,VALID,0,VALID,97.7406,VALID,0.0339617,VALID,19.4275,VALID,133,VALID,0.809152,
2004-07-28, 00:19:01,VALID,917.943,VALID,0,VALID,97.9021,VALID,0,VALID,19.4248,VALID,131,VALID,0.696039,
2004-07-28, 00:20:01,VALID,917.939,VALID,0,VALID,97.8996,VALID,0,VALID,19.4352,VALID,129,VALID,0.472929,
2004-07-28, 00:21:01,VALID,917.937,VALID,0,VALID,97.864,VALID,0,VALID,19.395,VALID,127,VALID,0.521949,
2004-07-28, 00:22:01,VALID,917.916,VALID,0,VALID,97.9784,VALID,0.0169808,VALID,19.3955,VALID,126,VALID,0.622093,
2004-07-28, 00:23:01,VALID,917.905,VALID,0,VALID,98.0916,VALID,0,VALID,19.3855,VALID,126,VALID,0.715298,
2004-07-28, 00:24:01,VALID,917.872,VALID,0,VALID,98.2899,VALID,0.0169808,VALID,19.3823,VALID,126,VALID,0.544969,
2004-07-28, 00:25:01,VALID,917.857,VALID,0,VALID,98.529,VALID,0,VALID,19.4017,VALID,121,VALID,0.735863,
2004-07-28, 00:26:00,VALID,917.836,VALID,0,VALID,98.5989,VALID,0.0169808,VALID,19.4208,VALID,114,VALID,0.575149,
2004-07-28, 00:27:00,VALID,917.816,VALID,0,VALID,98.571,VALID,0,VALID,19.4345,VALID,108,VALID,0.582849,
2004-07-28, 00:28:00,VALID,917.808,VALID,0,VALID,98.7706,VALID,0,VALID,19.4508,VALID,108,VALID,0.482067,
2004-07-28, 00:29:00,VALID,917.805,VALID,0,VALID,98.7261,VALID,0.0169808,VALID,19.4439,VALID,108,VALID,0.468006,
2004-07-28, 00:30:00,VALID,917.789,VALID,0,VALID,98.6447,VALID,-0.0169808,VALID,19.4444,VALID,108,VALID,0.385742,
2004-07-28, 00:31:00,VALID,917.791,VALID,0,VALID,98.6498,VALID,0,VALID,19.4349,VALID,109,VALID,0.411014,
2004-07-28, 00:32:00,VALID,917.794,VALID,0,VALID,98.8011,VALID,0,VALID,19.4474,VALID,110,VALID,0.473189,
2004-07-28, 00:33:00,VALID,917.803,VALID,0,VALID,98.8978,VALID,0,VALID,19.4638,VALID,110,VALID,0.401634,
2004-07-28, 00:34:00,VALID,917.799,VALID,0,VALID,98.9474,VALID,-0.0169808,VALID,19.4732,VALID,110,VALID,0.168445,
2004-07-28, 00:35:00,VALID,917.798,VALID,0,VALID,98.7846,VALID,0,VALID,19.4697,VALID,110,VALID,0.0651677,
2004-07-28, 00:36:00,VALID,917.795,VALID,0,VALID,98.5964,VALID,0,VALID,19.4501,VALID,110,VALID,0.205208,
2004-07-28, 00:37:00,VALID,917.788,VALID,0,VALID,98.8189,VALID,-0.0169808,VALID,19.47,VALID,110,VALID,0.0580357,
2004-07-28, 00:38:00,VALID,917.771,VALID,0,VALID,98.8024,VALID,0.0339617,VALID,19.4762,VALID,110,VALID,0,
2004-07-28, 00:39:00,VALID,917.769,VALID,0,VALID,98.5214,VALID,0,VALID,19.4543,VALID,110,VALID,0,
2004-07-28, 00:40:00,VALID,917.758,VALID,0,VALID,98.4171,VALID,0,VALID,19.4054,VALID,110,VALID,0,
2004-07-28, 00:41:00,VALID,917.747,VALID,0,VALID,98.2556,VALID,0,VALID,19.3796,VALID,110,VALID,0,
2004-07-28, 00:42:00,VALID,917.742,VALID,0,VALID,98.2035,VALID,0.0339617,VALID,19.347,VALID,110,VALID,0.0578835,
2004-07-28, 00:43:00,VALID,917.74,VALID,0,VALID,98.2111,VALID,0,VALID,19.3185,VALID,110,VALID,0.256641,
2004-07-28, 00:44:00,VALID,917.736,VALID,0,VALID,98.2874,VALID,0.0339617,VALID,19.308,VALID,110,VALID,0.33559,
2004-07-28, 00:45:00,VALID,917.726,VALID,0,VALID,98.1615,VALID,0.0169808,VALID,19.2956,VALID,110,VALID,0.348544,
2004-07-28, 00:46:00,VALID,917.719,VALID,0,VALID,97.9733,VALID,0.0169808,VALID,19.2666,VALID,110,VALID,0.29144,
2004-07-28, 00:47:00,VALID,917.715,VALID,0,VALID,97.9771,VALID,0.0339617,VALID,19.2243,VALID,110,VALID,0.298209,
2004-07-28, 00:48:00,VALID,917.703,VALID,0,VALID,98.0318,VALID,0.0339617,VALID,19.1923,VALID,110,VALID,0.255996,
2004-07-28, 00:49:00,VALID,917.707,VALID,0,VALID,98.1323,VALID,-0.0169808,VALID,19.1699,VALID,110,VALID,0.140625,
2004-07-28, 00:50:00,VALID,917.695,VALID,0,VALID,98.2582,VALID,0,VALID,19.1536,VALID,110,VALID,0.00571646,
2004-07-28, 00:51:00,VALID,917.678,VALID,0,VALID,98.3535,VALID,0,VALID,19.1565,VALID,110,VALID,0,
2004-07-28, 00:52:00,VALID,917.671,VALID,0,VALID,98.501,VALID,0,VALID,19.1764,VALID,110,VALID,0,
2004-07-28, 00:53:00,VALID,917.656,VALID,0,VALID,98.6485,VALID,0.0169808,VALID,19.1923,VALID,110,VALID,0,
2004-07-28, 00:54:00,VALID,917.652,VALID,0,VALID,98.8927,VALID,0,VALID,19.2276,VALID,110,VALID,0,
2004-07-28, 00:55:00,VALID,917.646,VALID,0,VALID,98.9372,VALID,0,VALID,19.27,VALID,110,VALID,0,
2004-07-28, 00:56:00,VALID,917.632,VALID,0,VALID,98.8393,VALID,0,VALID,19.2797,VALID,110,VALID,0,
2004-07-28, 00:57:00,VALID,917.623,VALID,0,VALID,98.7134,VALID,0.0169808,VALID,19.2829,VALID,110,VALID,0,
2004-07-28, 00:58:00,VALID,917.629,VALID,0,VALID,98.6078,VALID,0,VALID,19.2733,VALID,110,VALID,0.126635,
2004-07-28, 00:59:00,VALID,917.626,VALID,0,VALID,98.6104,VALID,0.0339617,VALID,19.2733,VALID,110,VALID,0.197493,
2004-07-28, 01:00:00,VALID,917.608,VALID,0,VALID,98.618,VALID,0,VALID,19.2668,VALID,110,VALID,0.192835,
2004-07-28, 01:01:00,VALID,917.611,VALID,0,VALID,98.6791,VALID,0,VALID,19.2765,VALID,110,VALID,0.244735,
2004-07-28, 01:02:00,VALID,917.596,VALID,0,VALID,98.8037,VALID,0,VALID,19.2633,VALID,110,VALID,0.191493,
2004-07-28, 01:03:00,VALID,917.585,VALID,0,VALID,98.8584,VALID,0,VALID,19.2666,VALID,110,VALID,0,
2004-07-28, 01:04:00,VALID,917.582,VALID,0,VALID,98.8139,VALID,-0.0169808,VALID,19.2797,VALID,110,VALID,0,
2004-07-28, 01:05:00,VALID,917.564,VALID,0,VALID,98.5519,VALID,0,VALID,19.2544,VALID,110,VALID,0,
2004-07-28, 01:06:00,VALID,917.558,VALID,0,VALID,98.2772,VALID,0,VALID,19.2057,VALID,110,VALID,0.0394176,
2004-07-28, 01:07:00,VALID,917.545,VALID,0,VALID,98.4896,VALID,0,VALID,19.2094,VALID,110,VALID,0.55599,
2004-07-28, 01:08:00,VALID,917.538,VALID,0,VALID,99.1038,VALID,-0.0169808,VALID,19.2415,VALID,111,VALID,0.742014,
2004-07-28, 01:09:00,VALID,917.535,VALID,0,VALID,99.2386,VALID,-0.0169808,VALID,19.2862,VALID,112,VALID,0.633575,
2004-07-28, 01:10:00,VALID,917.516,VALID,0,VALID,99.2882,VALID,0,VALID,19.3224,VALID,112,VALID,0.46582,
2004-07-28, 01:11:00,VALID,917.507,VALID,0,VALID,99.2551,VALID,-0.0339617,VALID,19.3383,VALID,112,VALID,0.144259,
2004-07-28, 01:12:00,VALID,917.509,VALID,0,VALID,99.0758,VALID,0,VALID,19.3254,VALID,112,VALID,0,
2004-07-28, 01:13:00,VALID,917.486,VALID,0,VALID,99.0415,VALID,-0.0169808,VALID,19.3152,VALID,112,VALID,0.00744913,
2004-07-28, 01:14:00,VALID,917.477,VALID,0,VALID,99.0516,VALID,0,VALID,19.3319,VALID,112,VALID,0.00120192,
2004-07-28, 01:15:00,VALID,917.47,VALID,0,VALID,99.0822,VALID,-0.0509425,VALID,19.3383,VALID,112,VALID,0,
2004-07-28, 01:16:00,VALID,917.461,VALID,0,VALID,98.8164,VALID,0,VALID,19.3222,VALID,112,VALID,0.000372024,
2004-07-28, 01:17:00,VALID,917.454,VALID,0,VALID,98.1412,VALID,-0.0339617,VALID,19.2221,VALID,112,VALID,0.35245,
2004-07-28, 01:18:00,VALID,917.44,VALID,0,VALID,98.117,VALID,-0.0169808,VALID,19.1734,VALID,112,VALID,0.40605,
2004-07-28, 01:19:00,VALID,917.426,VALID,0,VALID,98.3243,VALID,-0.0169808,VALID,19.1637,VALID,112,VALID,0.335574,
2004-07-28, 01:20:00,VALID,917.415,VALID,0,VALID,98.468,VALID,0,VALID,19.1801,VALID,112,VALID,0.214753,
2004-07-28, 01:21:00,VALID,917.396,VALID,0,VALID,98.6473,VALID,0,VALID,19.1965,VALID,112,VALID,0.206936,
2004-07-28, 01:22:00,VALID,917.385,VALID,0,VALID,98.6244,VALID,-0.0169808,VALID,19.1898,VALID,112,VALID,0.130766,
2004-07-28, 01:23:00,VALID,917.377,VALID,0,VALID,98.7134,VALID,0,VALID,19.1965,VALID,112,VALID,0.025,
2004-07-28, 01:24:00,VALID,917.356,VALID,0,VALID,98.8253,VALID,0,VALID,19.2089,VALID,112,VALID,0,
2004-07-28, 01:25:00,VALID,917.338,VALID,0,VALID,99.0211,VALID,-0.0169808,VALID,19.2616,VALID,112,VALID,0,
2004-07-28, 01:26:00,VALID,917.319,VALID,0,VALID,99.1546,VALID,0,VALID,19.3093,VALID,112,VALID,0.0433594,
2004-07-28, 01:27:00,VALID,917.298,VALID,0,VALID,99.0008,VALID,0.0169808,VALID,19.3152,VALID,112,VALID,0.206936,
2004-07-28, 01:28:00,VALID,917.286,VALID,0,VALID,98.693,VALID,-0.0169808,VALID,19.3095,VALID,112,VALID,0.191016,
2004-07-28, 01:29:00,VALID,917.254,VALID,0,VALID,98.3751,VALID,-0.0339617,VALID,19.2804,VALID,112,VALID,0.401155,
2004-07-28, 01:30:00,VALID,917.228,VALID,0,VALID,98.0878,VALID,0,VALID,19.2516,VALID,112,VALID,0.432065,
2004-07-28, 01:31:00,VALID,917.213,VALID,0,VALID,98.0687,VALID,0,VALID,19.2055,VALID,112,VALID,0.347656,
2004-07-28, 01:32:00,VALID,917.182,VALID,0,VALID,98.0636,VALID,-0.0169808,VALID,19.1732,VALID,111,VALID,0.389535,
2004-07-28, 01:33:00,VALID,917.18,VALID,0,VALID,98.323,VALID,0,VALID,19.197,VALID,106,VALID,0.537326,
2004-07-28, 01:34:00,VALID,917.165,VALID,0,VALID,98.482,VALID,0.0169808,VALID,19.1863,VALID,106,VALID,0.467578,
2004-07-28, 01:35:00,VALID,917.158,VALID,0,VALID,98.379,VALID,-0.0169808,VALID,19.1607,VALID,106,VALID,0.430556,
2004-07-28, 01:36:00,VALID,917.15,VALID,0,VALID,98.3459,VALID,0,VALID,19.1183,VALID,106,VALID,0.448742,
2004-07-28, 01:37:00,VALID,917.148,VALID,0,VALID,98.5265,VALID,0,VALID,19.1185,VALID,106,VALID,0.374455,
2004-07-28, 01:38:00,VALID,917.135,VALID,0,VALID,98.6918,VALID,0.101885,VALID,19.1233,VALID,106,VALID,0.371289,
2004-07-28, 01:39:00,VALID,917.132,VALID,0,VALID,98.7757,VALID,0.101885,VALID,19.1494,VALID,106,VALID,0.298177,
2004-07-28, 01:40:00,VALID,917.117,VALID,0,VALID,98.866,VALID,0.101885,VALID,19.1521,VALID,106,VALID,0.312891,
2004-07-28, 01:41:00,VALID,917.095,VALID,0,VALID,98.9614,VALID,0.101885,VALID,19.1816,VALID,92,VALID,0.492898,
2004-07-28, 01:42:00,VALID,917.091,VALID,0,VALID,99.1114,VALID,0.101885,VALID,19.2301,VALID,47,VALID,0.546875,
2004-07-28, 01:43:00,VALID,917.099,VALID,0,VALID,99.203,VALID,0.0849042,VALID,19.2591,VALID,40,VALID,0.266183,
2004-07-28, 01:44:00,VALID,917.096,VALID,0,VALID,99.2653,VALID,0.0849042,VALID,19.2984,VALID,353,VALID,0.361458,
2004-07-28, 01:45:00,VALID,917.09,VALID,0,VALID,99.3568,VALID,0.0679233,VALID,19.3336,VALID,326,VALID,0.564236,
2004-07-28, 01:46:00,VALID,917.08,VALID,0,VALID,99.236,VALID,0.0849042,VALID,19.3426,VALID,284,VALID,0.716704,
2004-07-28, 01:47:00,VALID,917.07,VALID,0,VALID,99.2106,VALID,0.0679233,VALID,19.3788,VALID,315,VALID,0.435096,
2004-07-28, 01:48:00,VALID,917.068,VALID,0,VALID,99.0618,VALID,0.0679233,VALID,19.3855,VALID,338,VALID,0.345385,
2004-07-28, 01:49:00,VALID,917.052,VALID,0,VALID,98.9728,VALID,0.0679233,VALID,19.3783,VALID,338,VALID,0.561047,
2004-07-28, 01:50:00,VALID,917.046,VALID,0,VALID,99.1483,VALID,0.0509425,VALID,19.4208,VALID,338,VALID,0.624219,
2004-07-28, 01:51:00,VALID,917.039,VALID,0,VALID,99.0491,VALID,0.0679233,VALID,19.4399,VALID,338,VALID,0.235328,
2004-07-28, 01:52:00,VALID,917.017,VALID,0,VALID,98.9219,VALID,0.0679233,VALID,19.4427,VALID,338,VALID,0.149653,
2004-07-28, 01:53:00,VALID,917.018,VALID,0,VALID,98.7922,VALID,-0.0339617,VALID,19.4506,VALID,338,VALID,0.282774,
2004-07-28, 01:54:00,VALID,917.026,VALID,0,VALID,98.693,VALID,0,VALID,19.4382,VALID,332,VALID,0.385417,
2004-07-28, 01:55:00,VALID,917.027,VALID,0,VALID,98.6969,VALID,0,VALID,19.4285,VALID,290,VALID,0.529119,
2004-07-28, 01:56:00,VALID,917.028,VALID,0,VALID,98.7897,VALID,-0.0509425,VALID,19.4064,VALID,283,VALID,0.313743,
2004-07-28, 01:57:00,VALID,917.029,VALID,0,VALID,98.9067,VALID,0,VALID,19.3858,VALID,283,VALID,0.213542,
2004-07-28, 01:58:00,VALID,917.039,VALID,0,VALID,98.9664,VALID,-0.0509425,VALID,19.3927,VALID,283,VALID,0.00571646,
2004-07-28, 01:59:00,VALID,917.03,VALID,0,VALID,99.0135,VALID,0,VALID,19.4054,VALID,283,VALID,0.0452009,
2004-07-28, 02:00:00,VALID,917.027,VALID,0,VALID,99.0059,VALID,-0.0339617,VALID,19.4024,VALID,283,VALID,0.0428779,
2004-07-28, 02:01:00,VALID,917.043,VALID,0,VALID,99.0109,VALID,-0.0169808,VALID,19.3893,VALID,283,VALID,0.198401,
2004-07-28, 02:02:00,VALID,917.045,VALID,0,VALID,99.058,VALID,0.0169808,VALID,19.3927,VALID,283,VALID,0.0286458,
2004-07-28, 02:03:00,VALID,917.044,VALID,0,VALID,99.1127,VALID,-0.0339617,VALID,19.3992,VALID,283,VALID,0,
2004-07-28, 02:04:00,VALID,917.057,VALID,0,VALID,99.1483,VALID,-0.0339617,VALID,19.4119,VALID,283,VALID,0,
2004-07-28, 02:05:00,VALID,917.075,VALID,0,VALID,99.1394,VALID,-0.0509425,VALID,19.4116,VALID,283,VALID,0.0723586,
2004-07-28, 02:06:00,VALID,917.079,VALID,0,VALID,99.1648,VALID,-0.0169808,VALID,19.4186,VALID,283,VALID,0.271532,
2004-07-28, 02:07:00,VALID,917.105,VALID,0,VALID,99.2093,VALID,-0.0339617,VALID,19.4379,VALID,283,VALID,0.167333,
2004-07-28, 02:08:00,VALID,917.119,VALID,0,VALID,99.2106,VALID,-0.0509425,VALID,19.4511,VALID,283,VALID,0.262463,
2004-07-28, 02:09:00,VALID,917.128,VALID,0,VALID,99.1801,VALID,0,VALID,19.467,VALID,283,VALID,0.386052,
2004-07-28, 02:10:00,VALID,917.138,VALID,0,VALID,99.1724,VALID,-0.0339617,VALID,19.4869,VALID,321,VALID,0.577951,
2004-07-28, 02:11:00,VALID,917.152,VALID,0,VALID,99.0313,VALID,-0.0339617,VALID,19.4864,VALID,345,VALID,0.559261,
2004-07-28, 02:12:00,VALID,917.156,VALID,0,VALID,98.8711,VALID,-0.0339617,VALID,19.4839,VALID,352,VALID,0.492374,
2004-07-28, 02:13:00,VALID,917.154,VALID,0,VALID,98.7554,VALID,-0.0339617,VALID,19.4643,VALID,1,VALID,0.543527,
2004-07-28, 02:14:00,VALID,917.154,VALID,0,VALID,98.7541,VALID,-0.0509425,VALID,19.4541,VALID,352,VALID,0.251302,
2004-07-28, 02:15:00,VALID,917.161,VALID,0,VALID,98.7643,VALID,0,VALID,19.461,VALID,352,VALID,0.0477834,
2004-07-28, 02:16:00,VALID,917.157,VALID,0,VALID,98.6562,VALID,0,VALID,19.4508,VALID,352,VALID,0.0294331,
2004-07-28, 02:17:00,VALID,917.16,VALID,0,VALID,98.6663,VALID,-0.0169808,VALID,19.4412,VALID,352,VALID,0.217634,
2004-07-28, 02:18:00,VALID,917.164,VALID,0,VALID,98.6333,VALID,-0.0339617,VALID,19.4379,VALID,351,VALID,0.28782,
2004-07-28, 02:19:00,VALID,917.155,VALID,0,VALID,98.6854,VALID,-0.0339617,VALID,19.4282,VALID,351,VALID,0.0308689,
2004-07-28, 02:20:00,VALID,917.161,VALID,0,VALID,98.7528,VALID,0,VALID,19.4153,VALID,351,VALID,0.133539,
2004-07-28, 02:21:00,VALID,917.155,VALID,0,VALID,98.6892,VALID,0,VALID,19.4096,VALID,351,VALID,0.090298,
2004-07-28, 02:22:00,VALID,917.147,VALID,0,VALID,98.6689,VALID,-0.0169808,VALID,19.3895,VALID,351,VALID,0.00190549,
2004-07-28, 02:23:00,VALID,917.145,VALID,0,VALID,98.6129,VALID,0,VALID,19.3632,VALID,351,VALID,0.0888445,
2004-07-28, 02:24:00,VALID,917.138,VALID,0,VALID,98.6854,VALID,0,VALID,19.3535,VALID,351,VALID,0.109205,
2004-07-28, 02:25:00,VALID,917.134,VALID,0,VALID,98.6994,VALID,-0.0509425,VALID,19.3567,VALID,351,VALID,0.00111607,
2004-07-28, 02:26:00,VALID,917.121,VALID,0,VALID,98.7261,VALID,0,VALID,19.3667,VALID,351,VALID,0.0764898,
2004-07-28, 02:27:00,VALID,917.109,VALID,0,VALID,98.7706,VALID,0,VALID,19.344,VALID,351,VALID,0.132086,
2004-07-28, 02:28:00,VALID,917.086,VALID,0,VALID,98.8622,VALID,-0.0509425,VALID,19.3406,VALID,351,VALID,0.027798,
2004-07-28, 02:29:00,VALID,917.072,VALID,0,VALID,98.9461,VALID,-0.0169808,VALID,19.3311,VALID,351,VALID,0.28054,
2004-07-28, 02:30:00,VALID,917.061,VALID,0,VALID,99.0237,VALID,0,VALID,19.3214,VALID,285,VALID,0.514353,
2004-07-28, 02:31:00,VALID,917.041,VALID,0,VALID,99.0872,VALID,-0.0339617,VALID,19.3058,VALID,240,VALID,0.458394,
2004-07-28, 02:32:00,VALID,917.015,VALID,0,VALID,99.2144,VALID,-0.0339617,VALID,19.2956,VALID,237,VALID,0.137058,
2004-07-28, 02:33:00,VALID,916.991,VALID,0,VALID,99.325,VALID,0,VALID,19.2993,VALID,237,VALID,0.174653,
2004-07-28, 02:34:00,VALID,916.97,VALID,0,VALID,99.4115,VALID,-0.0169808,VALID,19.3053,VALID,237,VALID,0.0807292,
2004-07-28, 02:35:00,VALID,916.956,VALID,0,VALID,99.456,VALID,0,VALID,19.2986,VALID,237,VALID,0.353423,
2004-07-28, 02:36:00,VALID,916.938,VALID,0,VALID,99.4547,VALID,-0.0339617,VALID,19.3021,VALID,237,VALID,0.28452,
2004-07-28, 02:37:00,VALID,916.908,VALID,0,VALID,99.4331,VALID,0.0169808,VALID,19.318,VALID,237,VALID,0.105923,
2004-07-28, 02:38:00,VALID,916.887,VALID,0,VALID,99.395,VALID,-0.0169808,VALID,19.3254,VALID,237,VALID,0,
2004-07-28, 02:39:00,VALID,916.852,VALID,0,VALID,99.3556,VALID,-0.0509425,VALID,19.3455,VALID,240,VALID,0.175877,
2004-07-28, 02:40:00,VALID,916.829,VALID,0,VALID,99.2462,VALID,-0.101885,VALID,19.3356,VALID,312,VALID,0.501776,
2004-07-28, 02:41:00,VALID,916.805,VALID,0,VALID,99.1788,VALID,-0.0679233,VALID,19.3316,VALID,360,VALID,0.744606,
2004-07-28, 02:42:00,VALID,916.794,VALID,0,VALID,98.9957,VALID,-0.0849042,VALID,19.3383,VALID,4,VALID,0.66673,
2004-07-28, 02:43:00,VALID,916.772,VALID,0,VALID,98.8177,VALID,-0.0679233,VALID,19.313,VALID,4,VALID,0.643359,
2004-07-28, 02:44:00,VALID,916.768,VALID,0,VALID,98.7223,VALID,-0.0849042,VALID,19.2777,VALID,4,VALID,0.552557,
2004-07-28, 02:45:00,VALID,916.757,VALID,0,VALID,98.6651,VALID,-0.0169808,VALID,19.2486,VALID,4,VALID,0.315589,
2004-07-28, 02:46:00,VALID,916.739,VALID,0,VALID,98.6117,VALID,-0.0849042,VALID,19.2131,VALID,4,VALID,0.0790777,
2004-07-28, 02:47:00,VALID,916.718,VALID,0,VALID,98.5544,VALID,-0.0339617,VALID,19.19,VALID,4,VALID,0.267535,
2004-07-28, 02:48:00,VALID,916.708,VALID,0,VALID,98.6015,VALID,-0.0849042,VALID,19.1776,VALID,4,VALID,0.339472,
2004-07-28, 02:49:00,VALID,916.707,VALID,0,VALID,98.6015,VALID,-0.0849042,VALID,19.1677,VALID,4,VALID,0.187119,
2004-07-28, 02:50:00,VALID,916.717,VALID,0,VALID,98.6663,VALID,-0.0509425,VALID,19.1545,VALID,4,VALID,0.0431548,
2004-07-28, 02:51:00,VALID,916.725,VALID,0,VALID,98.7007,VALID,-0.0509425,VALID,19.1615,VALID,4,VALID,0.11441,
2004-07-28, 02:52:00,VALID,916.723,VALID,0,VALID,98.7515,VALID,-0.0509425,VALID,19.1548,VALID,4,VALID,0,
2004-07-28, 02:53:00,VALID,916.717,VALID,0,VALID,98.6511,VALID,0.0679233,VALID,19.1466,VALID,4,VALID,0,
2004-07-28, 02:54:00,VALID,916.723,VALID,0,VALID,98.5964,VALID,0.0339617,VALID,19.1213,VALID,4,VALID,0.106641,
2004-07-28, 02:55:00,VALID,916.74,VALID,0,VALID,98.6943,VALID,0.0679233,VALID,19.1404,VALID,4,VALID,0.336868,
2004-07-28, 02:56:00,VALID,916.731,VALID,0,VALID,98.3586,VALID,0.0509425,VALID,19.0825,VALID,4,VALID,0.745276,
2004-07-28, 02:57:00,VALID,916.74,VALID,0,VALID,98.6244,VALID,0.0849042,VALID,19.0912,VALID,16,VALID,0.621094,
2004-07-28, 02:58:00,VALID,916.738,VALID,0,VALID,98.6167,VALID,0.0849042,VALID,19.1079,VALID,352,VALID,0.535823,
2004-07-28, 02:59:00,VALID,916.728,VALID,0,VALID,98.3917,VALID,0.0679233,VALID,19.0855,VALID,357,VALID,0.694425,
2004-07-28, 03:00:00,VALID,916.734,VALID,0,VALID,98.3077,VALID,0.0679233,VALID,19.0627,VALID,359,VALID,0.556402,
2004-07-28, 03:01:00,VALID,916.719,VALID,0,VALID,98.4349,VALID,0.0509425,VALID,19.0498,VALID,4,VALID,0.750533,
2004-07-28, 03:02:00,VALID,916.713,VALID,0,VALID,98.7757,VALID,0.0679233,VALID,19.0885,VALID,17,VALID,0.567649,
2004-07-28, 03:03:00,VALID,916.716,VALID,0,VALID,98.7439,VALID,0.0849042,VALID,19.1046,VALID,17,VALID,0.388889,
2004-07-28, 03:04:00,VALID,916.702,VALID,0,VALID,98.6956,VALID,0.0509425,VALID,19.1017,VALID,17,VALID,0.191939,
2004-07-28, 03:05:00,VALID,916.683,VALID,0,VALID,98.7884,VALID,0.0509425,VALID,19.121,VALID,17,VALID,0.310352,
2004-07-28, 03:06:00,VALID,916.678,VALID,0,VALID,98.7566,VALID,0.0339617,VALID,19.1272,VALID,17,VALID,0.485795,
2004-07-28, 03:07:00,VALID,916.658,VALID,0,VALID,98.6485,VALID,0.0679233,VALID,19.124,VALID,17,VALID,0.619271,
2004-07-28, 03:08:00,VALID,916.659,VALID,0,VALID,98.6231,VALID,-0.0679233,VALID,19.1163,VALID,17,VALID,0.662246,
2004-07-28, 03:09:00,VALID,916.652,VALID,0,VALID,98.6791,VALID,-0.0679233,VALID,19.1125,VALID,17,VALID,0.545573,
2004-07-28, 03:10:00,VALID,916.638,VALID,0,VALID,98.721,VALID,-0.0509425,VALID,19.1262,VALID,17,VALID,0.46596,
2004-07-28, 03:11:00,VALID,916.618,VALID,0,VALID,98.66,VALID,0,VALID,19.0929,VALID,17,VALID,0.175223,
2004-07-28, 03:12:00,VALID,916.618,VALID,0,VALID,98.6956,VALID,0,VALID,19.0736,VALID,13,VALID,0.439931,
2004-07-28, 03:13:00,VALID,916.622,VALID,0,VALID,98.8291,VALID,0,VALID,19.0902,VALID,357,VALID,0.450335,
2004-07-28, 03:14:00,VALID,916.619,VALID,0,VALID,98.7859,VALID,-0.0509425,VALID,19.0837,VALID,348,VALID,0.668988,
2004-07-28, 03:15:00,VALID,916.627,VALID,0,VALID,98.9944,VALID,-0.0169808,VALID,19.1026,VALID,353,VALID,0.799414,
2004-07-28, 03:16:00,VALID,916.613,VALID,0,VALID,98.9614,VALID,-0.0679233,VALID,19.1391,VALID,1,VALID,0.619913,
2004-07-28, 03:17:00,VALID,916.611,VALID,0,VALID,98.866,VALID,-0.0679233,VALID,19.1647,VALID,345,VALID,0.580611,
2004-07-28, 03:18:00,VALID,916.604,VALID,0,VALID,98.8227,VALID,-0.0509425,VALID,19.1711,VALID,335,VALID,0.663681,
2004-07-28, 03:19:00,VALID,916.602,VALID,0,VALID,98.7744,VALID,-0.0509425,VALID,19.1935,VALID,2,VALID,0.508539,
2004-07-28, 03:20:00,VALID,916.584,VALID,0,VALID,98.5824,VALID,-0.0339617,VALID,19.2099,VALID,360,VALID,0.333757,
2004-07-28, 03:21:00,VALID,916.561,VALID,0,VALID,98.3942,VALID,-0.0339617,VALID,19.1903,VALID,1,VALID,0.0742188,
2004-07-28, 03:22:00,VALID,916.547,VALID,0,VALID,98.4489,VALID,-0.0509425,VALID,19.1972,VALID,1,VALID,0.000190549,
2004-07-28, 03:23:00,VALID,916.521,VALID,0,VALID,98.5583,VALID,-0.0509425,VALID,19.1967,VALID,1,VALID,0.0293899,
2004-07-28, 03:24:00,VALID,916.503,VALID,0,VALID,98.59,VALID,0,VALID,19.1965,VALID,1,VALID,0,
2004-07-28, 03:25:00,VALID,916.481,VALID,0,VALID,98.5799,VALID,-0.0849042,VALID,19.1838,VALID,1,VALID,0.0230655,
2004-07-28, 03:26:00,VALID,916.47,VALID,0,VALID,98.6409,VALID,-0.0679233,VALID,19.1704,VALID,1,VALID,0.142681,
2004-07-28, 03:27:00,VALID,916.459,VALID,0,VALID,98.5697,VALID,-0.0339617,VALID,19.1577,VALID,1,VALID,0,
2004-07-28, 03:28:00,VALID,916.459,VALID,0,VALID,98.4972,VALID,-0.0679233,VALID,19.1453,VALID,1,VALID,0,
2004-07-28, 03:29:00,VALID,916.468,VALID,0,VALID,98.2225,VALID,-0.0679233,VALID,19.0966,VALID,1,VALID,0,
2004-07-28, 03:30:00,VALID,916.48,VALID,0,VALID,98.351,VALID,-0.101885,VALID,19.0713,VALID,1,VALID,0,
2004-07-28, 03:31:00,VALID,916.476,VALID,0,VALID,98.5392,VALID,-0.0509425,VALID,19.0877,VALID,1,VALID,0,
2004-07-28, 03:32:00,VALID,916.472,VALID,0,VALID,98.5506,VALID,-0.0509425,VALID,19.0614,VALID,1,VALID,0.0543155,
2004-07-28, 03:33:00,VALID,916.455,VALID,0,VALID,98.4858,VALID,-0.0169808,VALID,19.0388,VALID,1,VALID,0.114063,
2004-07-28, 03:34:00,VALID,916.445,VALID,0,VALID,98.4286,VALID,-0.0169808,VALID,18.9998,VALID,1,VALID,0.178961,
2004-07-28, 03:35:00,VALID,916.428,VALID,0,VALID,98.3662,VALID,-0.0509425,VALID,18.9513,VALID,1,VALID,0.0375,